This is the latest recevied weather packets stored in our database for station/object W0AKO. If no packets are shown the sender has not sent any weather packets the latest 10 day(s).
| Time | Temp. | Humidity | Pressure | Rain* | Wind** | Luminosity | Snow |
|---|---|---|---|---|---|---|---|
| 1777666566 | 26.11° C | 10% | 1016.5 hPa | 0 mm | - | 782 W/m² | - |
| 1777666263 | 26.11° C | 10% | 1016.9 hPa | 0 mm | - | 768 W/m² | - |
| 1777665960 | 25.56° C | 10% | 1016.8 hPa | 0 mm | - | 754 W/m² | - |
| 1777665657 | 25.56° C | 10% | 1016.9 hPa | 0 mm | - | 764 W/m² | - |
| 1777665355 | 25.56° C | 10% | 1016.9 hPa | 0 mm | - | 764 W/m² | - |
| 1777665050 | 25.56° C | 10% | 1017 hPa | 0 mm | - | 705 W/m² | - |
| 1777664745 | 25.56° C | 10% | 1017 hPa | 0 mm | - | 651 W/m² | - |
| 1777664442 | 25° C | 10% | 1017.2 hPa | 0 mm | - | 638 W/m² | - |
| 1777664139 | 25° C | 10% | 1017.1 hPa | 0 mm | - | 602 W/m² | - |
| 1777663838 | 25° C | 10% | 1017.3 hPa | 0 mm | - | 590 W/m² | - |
| 1777663534 | 25° C | 10% | 1017.1 hPa | 0 mm | - | 601 W/m² | - |
| 1777663232 | 24.44° C | 10% | 1017.2 hPa | 0 mm | - | 626 W/m² | - |
| 1777662929 | 25° C | 10% | 1017.7 hPa | 0 mm | - | 684 W/m² | - |
| 1777662626 | 23.89° C | 10% | 1017.7 hPa | 0 mm | - | 722 W/m² | - |
| 1777662321 | 23.89° C | 10% | 1017.6 hPa | 0 mm | - | 727 W/m² | - |
| 1777662017 | 23.33° C | 10% | 1017.8 hPa | 0 mm | - | 707 W/m² | - |
| 1777661714 | 23.33° C | 10% | 1017.6 hPa | 0 mm | - | 710 W/m² | - |
| 1777661409 | 25° C | 10% | 1017.6 hPa | 0 mm | - | 737 W/m² | - |
| 1777661106 | 23.33° C | 10% | 1017.8 hPa | 0 mm | - | 747 W/m² | - |
| 1777660801 | 23.33° C | 10% | 1017.8 hPa | 0 mm | - | 763 W/m² | - |
| 1777660498 | 23.89° C | 10% | 1018.1 hPa | 0 mm | - | 789 W/m² | - |
| 1777660194 | 23.89° C | 10% | 1018 hPa | 0 mm | - | 797 W/m² | - |
| 1777659891 | 24.44° C | 10% | 1018.3 hPa | 0 mm | - | 793 W/m² | - |
| 1777659588 | 23.33° C | 10% | 1018.1 hPa | 0 mm | - | 803 W/m² | - |
| 1777659285 | 22.78° C | 10% | 1018.3 hPa | 0 mm | - | 831 W/m² | - |
* Rain latest hour (hover to see other rain measurements)
** Current wind speed in m/s (hover to see current wind gust speed)